Regional Weather Roundup
Issued by NWS Cleveland, OH

Home | Current Version | Previous Version | Graphics & Text | Print | Product List | Glossary On
Versions: 1 2 3 4 5 6 7 8 9 10 11 12 13 14 15 16 17 18 19 20 21 22 23 24 25 26 27 28 29 30 31 32 33 34 35 36 37 38 39 40 41 42 43 44 45 46 47 48 49 50
000
ASUS41 KCLE 252010
RWRCLE
OHIO REGIONAL WEATHER ROUNDUP
NATIONAL WEATHER SERVICE WILMINGTON, OH
400 PM EDT SAT MAR 25 2017

NOTE: "FAIR" INDICATES FEW OR NO CLOUDS BELOW 12,000 FEET WITH NO
SIGNIFICANT WEATHER AND/OR OBSTRUCTIONS TO VISIBILITY.

OHZ001>008-015>018-024>027-034-035-043-044-252100-
   NORTHWEST OHIO

CITY           SKY/WX    TMP DP  RH WIND       PRES   REMARKS
DEFIANCE       FAIR      53  43  68 E15       30.09F
FINDLAY        FAIR      59  45  59 NE14      30.09F
TOLEDO EXPRESS CLOUDY    43  38  82 E17G25    30.15S
TOLEDO EXEC    CLOUDY    41  38  89 NE16G24   30.18S
LIMA           FAIR      72  53  51 S10       30.06F
$$

OHZ009>014-019>023-028>033-038-089-252100-
   NORTHEAST OHIO

CITY           SKY/WX    TMP DP  RH WIND       PRES   REMARKS
CLE-HOPKINS    CLOUDY    53  40  61 N10       30.17F
CLE-LAKEFRONT  CLOUDY    41  38  89 NE17      30.15F
CUY CO. ARPT   CLOUDY    57  46  67 E12       30.16F
LORAIN-ELYRIA  FAIR      52  43  71 NE9       30.14F
ASHTABULA      PTSUNNY   51  42  71 NE7       30.20F
AKRON-CANTON   CLOUDY    73  50  44 CALM      30.12F
WOOSTER        FAIR      71  52  50 E5        30.12F
MANSFIELD      CLOUDY    72  52  49 SW10      30.10F
YOUNGSTOWN     CLOUDY    58  47  66 NE9       30.16F
$$

OHZ042-051>053-060>062-070>072-077>081-252100-
  SOUTHWEST OHIO

CITY           SKY/WX    TMP DP  RH WIND       PRES   REMARKS
CINC-COVINGTON PTSUNNY   76  52  43 SE16      30.04F
CINC-LUNKEN    FAIR      74  52  46 SE14      30.04F
HAMILTON       FAIR      78  52  40 S8G17     30.03F
DAYTON         CLOUDY    73  51  46 SE13      30.05F
WRIGHT-PAT AFB PTSUNNY   75  50  42 SE13      30.05F
DAYTON GENERAL FAIR      75  51  43 SE14      30.04F
WILMINGTON     FAIR      70  52  52 S14       30.07F
$$

OHZ036-037-039>041-045>050-054>059-063>069-073>076-082>088-252100-
  CENTRAL AND SOUTHEAST OHIO

CITY           SKY/WX    TMP DP  RH WIND       PRES   REMARKS
COLUMBUS       PTSUNNY   73  51  46 S8        30.09F
OSU AIRPORT    FAIR      73  53  49 S7        30.09F
BOLTON FIELD   SUNNY     72  54  53 S8        30.09F
RICKENBACK AFB FAIR      72  51  48 S10       30.08F
NEWARK         FAIR      72  52  49 W8        30.09F
MARION         CLOUDY    72  50  45 SW10      30.09F
LANCASTER      FAIR      75  51  43 SW3       30.10F
ZANESVILLE     FAIR      74  51  44 S7        30.11F
NEW PHILLY     FAIR      73  51  46 CALM      30.11F
$$




USA.gov is the U.S. government's official web portal to all federal, state and local government web resources and services.